[[{"header":{"parameterUnit":"m.s-1","parameterCategory":1,"la1":30.2991,"la2":30.254,"lo1":-89.0895,"lo2":-89.0444,"dy":0.0017,"dx":0.0017,"nx":28,"ny":28,"refTime":"2024-04-29T09:00:00:Z","depth":0,"parameterNumber":2,"parameterNumberName":"U-component_of_WINDS"},"data":[0,0,0,0,0,0,0,0,0,0,0,0,0,0,0,0,0,0,0,0,0,0,0,0,0,0,0,0,0,0,0,0,0,0,0,0,0,0,0,0,0,0,0,0,0,0,0,0,0,0,0,0,0,0,0,0,0,0,-5.5365,-5.5366,0,-5.5432,-5.5432,-5.5433,-5.5393,-5.5391,-5.5389,-5.5387,-5.5452,-5.5456,-5.5459,0,0,0,0,0,0,0,0,0,0,0,0,0,-5.5199,-5.5202,-5.5365,-5.5366,-5.5366,-5.5432,-5.5432,-5.5433,-5.5393,-5.5391,-5.5389,-5.5386,-5.5451,-5.5455,-5.546,0,0,0,0,0,0,0,0,0,0,0,0,0,-5.5269,-5.5203,-5.5365,-5.5354,-5.5354,-5.5431,-5.5432,-5.5434,-5.5394,-5.5391,-5.5388,-5.5385,-5.545,-5.5455,-5.546,-5.555,0,0,-5.5476,-5.5479,0,0,0,0,0,0,0,0,-5.5265,-5.5275,-5.5355,-5.5355,-5.5355,-5.5401,-5.5398,-5.5473,-5.5394,-5.5379,-5.5387,-5.5384,-5.5437,-5.5444,-5.5462,-5.5553,-5.5556,-5.5477,-5.548,-5.5482,-5.5484,0,0,0,0,0,0,0,-5.526,-5.5272,-5.5391,-5.5356,-5.5356,-5.5345,-5.5352,-5.5412,-5.5423,-5.538,-5.5377,-5.5386,-5.5437,-5.5457,-5.5463,-5.5557,-5.5477,-5.5481,-5.5485,-5.5487,-5.5724,-5.5727,0,0,0,0,0,0,-5.5257,-5.5268,-5.5389,-5.5393,-5.5302,-5.5351,-5.5358,-5.5389,-5.5422,-5.5425,-5.5388,-5.5384,-5.545,-5.5457,-5.5466,-5.5572,-5.5482,-5.5487,-5.549,-5.5721,-5.5724,-5.5728,0,0,0,0,0,0,-5.5253,-5.5268,-5.5386,-5.533,-5.5344,-5.5357,-5.5392,-5.5392,-5.5412,-5.5429,-5.543,-5.5407,-5.5448,-5.5458,-5.5529,-5.5573,-5.549,-5.5494,-5.5717,-5.5722,-5.5726,-5.5785,0,0,0,0,0,0,-5.5249,-5.5267,-5.5302,-5.5331,-5.5347,-5.545,-5.5394,-5.5395,-5.5422,-5.5417,-5.5447,-5.5449,-5.5446,-5.5522,-5.5535,-5.5579,-5.5498,-5.5713,-5.5719,-5.5725,-5.5779,-5.5791,-5.5802,0,0,0,0,0,-5.5243,-5.5315,-5.5304,-5.5319,-5.5392,-5.5453,-5.5462,-5.5458,-5.5426,-5.546,-5.5471,-5.5448,-5.5567,-5.5529,-5.5544,-5.559,-5.571,-5.5717,-5.5724,-5.5774,-5.5789,-5.5801,0,0,0,0,0,0,-5.529,-5.5319,-5.5306,-5.5391,-5.542,-5.5446,-5.5489,-5.5474,-5.5511,-5.5505,-5.5498,-5.5505,-5.5579,-5.5592,-5.5549,-5.5678,-5.5633,-5.5644,-5.5667,-5.5681,-5.5692,-5.5685,-5.5503,0,0,0,0,0,-5.531,-5.5358,-5.5381,-5.5453,-5.5468,-5.5477,-5.5503,-5.5498,-5.5527,-5.5538,-5.5554,-5.5582,-5.5626,-5.5654,-5.5695,-5.5782,-5.5787,-5.5821,-5.5832,-5.5841,-5.5849,-5.5894,-5.5909,-5.5751,-5.5751,-5.5751,0,0,-5.5352,-5.5374,-5.5405,-5.5463,-5.5485,-5.5533,-5.5487,-5.5541,-5.5576,-5.5546,-5.5614,-5.5627,-5.5658,-5.5736,-5.5772,-5.575,-5.5895,-5.585,-5.5857,-5.586,-5.5903,-5.5918,-5.5931,-5.5756,-5.5755,-5.5754,0,0,-5.5453,-5.5476,-5.5537,-5.5561,-5.5594,-5.5599,-5.5614,-5.5643,-5.5651,-5.5719,-5.5697,-5.5739,-5.5815,-5.5837,-5.5859,-5.5969,-5.5949,-5.5983,-5.604,-5.6084,-5.6096,-5.6107,-5.6144,-5.6158,-5.5991,-5.5992,-5.5992,0,-5.55,-5.5574,-5.5571,-5.5626,-5.5652,-5.5629,-5.569,-5.5712,-5.5758,-5.5775,-5.575,-5.5844,-5.5864,-5.5946,-5.5973,-5.5993,-5.6008,-5.5978,-5.6095,-5.6106,-5.6116,-5.6151,-5.6165,-5.5995,-5.5995,-5.5994,-5.5994,0,-5.5629,-5.5681,-5.5727,-5.5772,-5.5803,-5.5861,-5.5866,-5.5897,-5.589,-5.5897,-5.5966,-5.5989,-5.6034,-5.6054,-5.6047,-5.6136,-5.6121,-5.6096,-5.605,-5.6135,-5.6168,-5.6181,-5.6,-5.5999,-5.5998,-5.5997,0,0,-5.576,-5.5803,-5.582,-5.5839,-5.5875,-5.5914,-5.5971,-5.6016,-5.6042,-5.6075,-5.6121,-5.6186,-5.6163,-5.6187,-5.6183,-5.6222,-5.6305,-5.6192,-5.6193,-5.621,-5.6402,-5.6419,-5.6435,-5.6294,-5.6296,-5.6298,-5.6399,0,-5.5861,-5.5961,-5.596,-5.6052,-5.6098,-5.6078,-5.6127,-5.6154,-5.6163,-5.6202,-5.6212,-5.6257,-5.6225,-5.6239,-5.6277,-5.6287,-5.6343,-5.628,-5.6334,-5.6336,-5.6324,-5.6452,-5.647,-5.6563,-5.6412,-5.6414,-5.6416,0,-5.5992,-5.6029,-5.6126,-5.6155,-5.6174,-5.6219,-5.6259,-5.6298,-5.6328,-5.6331,-5.6359,-5.6348,-5.6405,-5.636,-5.6436,-5.6393,-5.6416,-5.6424,-5.6428,-5.643,-5.6379,-5.6455,-5.6594,-5.6607,-5.6436,-5.6435,-5.6433,0,-5.6074,-5.6149,-5.6216,-5.6234,-5.627,-5.6301,-5.6317,-5.6344,-5.6371,-5.6406,-5.6423,-5.6465,-5.6487,-5.6519,-5.6519,-5.6487,-5.6596,-5.6551,-5.6598,-5.6598,-5.662,-5.6618,-5.6761,-5.6639,-5.6639,-5.6639,-5.6639,0,-5.6186,-5.6245,-5.6253,-5.6294,-5.636,-5.6359,-5.6423,-5.6436,-5.6461,-5.6503,-5.6488,-5.6528,-5.6527,-5.6567,-5.6568,-5.663,-5.6641,-5.6644,-5.6643,-5.6644,-5.6643,-5.6656,-5.6649,-5.6643,-5.6642,-5.6641,-5.664,0,-5.6288,-5.6296,-5.6367,-5.6396,-5.6404,-5.6451,-5.6475,-5.6513,-5.6521,-5.6575,-5.6587,-5.6599,-5.6646,-5.665,-5.6704,-5.6705,-5.6779,-5.6772,-5.6769,-5.6767,-5.6813,-5.6808,-5.6967,-5.6987,-5.6855,-5.6856,-5.6857,0,-5.6357,-5.6403,-5.6436,-5.6464,-5.6482,-5.6527,-5.6554,-5.6554,-5.6583,-5.662,-5.6654,-5.6699,-5.6735,-5.681,-5.6823,-5.6864,-5.6856,-5.691,-5.6862,-5.6861,-5.6854,-5.685,-5.6854,-5.6918,-5.6919,-5.692,-5.6921,0,-5.6479,-5.6481,-5.6521,-5.6563,-5.6596,-5.6629,-5.666,-5.6683,-5.6687,-5.672,-5.6768,-5.6796,-5.6852,-5.6896,-5.6936,-5.6952,-5.6937,-5.6937,-5.6949,-5.6949,-5.6944,-5.6945,-5.6791,-5.6932,-5.6931,-5.693,-5.693,-5.6929,-5.6565,-5.6604,-5.6633,-5.6678,-5.6702,-5.6731,-5.6768,-5.6781,-5.6821,-5.6866,-5.6864,-5.6917,-5.6944,-5.6997,-5.7016,-5.7056,-5.7038,-5.7057,-5.7061,-5.7065,-5.7068,-5.6941,-5.7063,-5.7063,-5.7063,-5.7062,-5.7062,0,-5.6684,-5.6702,-5.6744,-5.6787,-5.6823,-5.6808,-5.6841,-5.6871,-5.6917,-5.6945,-5.6981,-5.7035,-5.7078,-5.7095,-5.7137,-5.7166,-5.716,-5.7176,-5.7173,-5.7176,-5.7083,-5.7067,-5.718,-5.718,-5.718,-5.718,-5.718,-5.718,-5.675,-5.6814,-5.6819,-5.6894,-5.6911,-5.6963,-5.6983,-5.7009,-5.7031,-5.7093,-5.7129,-5.714,-5.7163,-5.7206,-5.7244,-5.7248,-5.7263,-5.7282,-5.7283,-5.7195,-5.7183,-5.7171,-5.7156,-5.7286,-5.7286,-5.7372,-5.7373,-5.7373]},{"header":{"parameterUnit":"m.s-1","parameterCategory":1,"la1":30.2991,"la2":30.254,"lo1":-89.0895,"lo2":-89.0444,"dy":0.0017,"dx":0.0017,"nx":28,"ny":28,"refTime":"2024-04-29T09:00:00:Z","depth":0,"parameterNumber":3,"parameterNumberName":"V-component_of_WINDS"},"data":[0,0,0,0,0,0,0,0,0,0,0,0,0,0,0,0,0,0,0,0,0,0,0,0,0,0,0,0,0,0,0,0,0,0,0,0,0,0,0,0,0,0,0,0,0,0,0,0,0,0,0,0,0,0,0,0,0,0,5.0655,5.0657,0,5.0767,5.0769,5.077,5.0746,5.0744,5.0742,5.074,5.085,5.0855,5.086,0,0,0,0,0,0,0,0,0,0,0,0,0,5.0417,5.0422,5.0655,5.0657,5.0658,5.0767,5.0769,5.077,5.0746,5.0744,5.0741,5.0739,5.0849,5.0855,5.086,0,0,0,0,0,0,0,0,0,0,0,0,0,5.0524,5.0423,5.0655,5.0659,5.0661,5.0767,5.0769,5.0771,5.0747,5.0744,5.0741,5.0738,5.0847,5.0854,5.0861,5.0968,0,0,5.0884,5.0887,0,0,0,0,0,0,0,0,5.0518,5.0533,5.0657,5.0659,5.0661,5.074,5.0725,5.0837,5.0748,5.0714,5.074,5.0736,5.0816,5.0825,5.0853,5.0974,5.0978,5.0884,5.0889,5.0892,5.0894,0,0,0,0,0,0,0,5.0511,5.0528,5.0699,5.0659,5.0662,5.0655,5.0667,5.0746,5.0781,5.0717,5.0715,5.0729,5.0816,5.0846,5.0856,5.098,5.0884,5.089,5.0895,5.0898,5.1195,5.1198,0,0,0,0,0,0,5.0502,5.0522,5.0696,5.0703,5.0581,5.0662,5.0675,5.0718,5.078,5.0787,5.0732,5.0728,5.0835,5.0847,5.0859,5.099,5.0892,5.0899,5.0903,5.1191,5.1196,5.1199,0,0,0,0,0,0,5.0497,5.0518,5.0691,5.0612,5.0634,5.0669,5.0717,5.0721,5.0751,5.0791,5.0797,5.0756,5.0833,5.0849,5.0942,5.0993,5.0902,5.0908,5.1187,5.1193,5.1198,5.125,0,0,0,0,0,0,5.049,5.0516,5.0558,5.0613,5.0638,5.0773,5.072,5.0726,5.0765,5.076,5.0816,5.0822,5.0832,5.0931,5.0949,5.1001,5.0914,5.1183,5.119,5.1196,5.1244,5.1257,5.1268,0,0,0,0,0,5.0482,5.0567,5.056,5.0581,5.0691,5.0776,5.079,5.0801,5.0769,5.0811,5.0837,5.082,5.0985,5.0941,5.0961,5.1016,5.118,5.1188,5.1195,5.1239,5.1254,5.1267,0,0,0,0,0,0,5.0515,5.0574,5.0567,5.0673,5.072,5.0772,5.0825,5.0817,5.0873,5.0866,5.0877,5.0889,5.0984,5.1009,5.096,5.1124,5.1077,5.109,5.1104,5.1119,5.113,5.1122,5.092,0,0,0,0,0,5.0535,5.06,5.0648,5.0737,5.0761,5.0789,5.0827,5.0832,5.088,5.0899,5.0931,5.0978,5.104,5.1081,5.114,5.1248,5.126,5.1296,5.1308,5.1317,5.1327,5.1387,5.1403,5.1225,5.1225,5.1225,0,0,5.0576,5.0617,5.0657,5.0745,5.0781,5.0848,5.0806,5.0878,5.0927,5.0909,5.1,5.1025,5.1078,5.1179,5.1225,5.1203,5.1379,5.1327,5.1334,5.1339,5.1397,5.1413,5.1428,5.1231,5.123,5.1229,0,0,5.0685,5.0722,5.0801,5.0839,5.0897,5.0915,5.0934,5.0988,5.1005,5.1096,5.1085,5.1143,5.125,5.1288,5.1321,5.1447,5.1434,5.1466,5.1527,5.1585,5.1599,5.1611,5.1656,5.1672,5.1476,5.1477,5.1477,0,5.0728,5.083,5.0842,5.0916,5.0955,5.0944,5.1023,5.1059,5.1132,5.1159,5.1134,5.1269,5.1303,5.1414,5.1445,5.1472,5.1494,5.1459,5.1596,5.1609,5.162,5.1663,5.168,5.148,5.148,5.1479,5.1479,0,5.088,5.0951,5.1007,5.108,5.1125,5.1201,5.1225,5.1269,5.127,5.1291,5.1384,5.1426,5.1494,5.1521,5.1522,5.1632,5.1616,5.1594,5.1547,5.1641,5.1681,5.1698,5.1485,5.1484,5.1483,5.1482,0,0,5.1012,5.1092,5.1113,5.1146,5.1209,5.1263,5.1339,5.1407,5.1445,5.1496,5.156,5.1652,5.1632,5.167,5.1675,5.1726,5.1824,5.1697,5.1698,5.1719,5.1947,5.1964,5.1983,5.1816,5.1819,5.1822,5.1943,0,5.1127,5.1262,5.1276,5.1396,5.1461,5.1453,5.1519,5.1564,5.1586,5.1644,5.1668,5.1733,5.1701,5.1724,5.1775,5.1801,5.1869,5.1792,5.1874,5.1877,5.1861,5.2004,5.2022,5.2134,5.1959,5.1962,5.1964,0,5.1278,5.1336,5.1463,5.1519,5.1547,5.1606,5.167,5.1726,5.1777,5.179,5.1834,5.1833,5.191,5.1862,5.1968,5.1916,5.195,5.1968,5.1973,5.1981,5.1926,5.2015,5.217,5.2187,5.1989,5.1987,5.1985,0,5.1362,5.1471,5.1562,5.1591,5.1657,5.1699,5.1729,5.1777,5.1818,5.1874,5.19,5.1964,5.1999,5.2048,5.2064,5.2027,5.217,5.2123,5.2182,5.2182,5.2212,5.221,5.2375,5.2235,5.2235,5.2234,5.2234,0,5.1488,5.1567,5.16,5.1656,5.1743,5.1759,5.1845,5.1872,5.1915,5.1976,5.1972,5.2028,5.2047,5.2106,5.2119,5.2206,5.2221,5.2233,5.2236,5.2234,5.2232,5.2256,5.2248,5.2239,5.2238,5.2237,5.2236,0,5.1596,5.1622,5.172,5.1776,5.1792,5.1854,5.1901,5.1955,5.1977,5.2053,5.2072,5.2106,5.2176,5.2197,5.2281,5.229,5.2391,5.2387,5.2374,5.2375,5.2433,5.2427,5.2618,5.2644,5.2487,5.2489,5.249,0,5.1675,5.1735,5.1798,5.1839,5.1871,5.1937,5.1979,5.1996,5.204,5.2104,5.215,5.222,5.2276,5.2389,5.242,5.2484,5.2481,5.2544,5.2491,5.2487,5.2482,5.2478,5.2485,5.2553,5.2555,5.2556,5.2558,0,5.1812,5.1823,5.1884,5.1951,5.2002,5.2055,5.2105,5.2139,5.2164,5.2213,5.2286,5.233,5.2417,5.2486,5.2552,5.2581,5.2574,5.2574,5.2592,5.259,5.258,5.2586,5.2402,5.257,5.2568,5.2568,5.2567,5.2566,5.1908,5.1962,5.2015,5.2084,5.2125,5.2173,5.2226,5.2256,5.2317,5.239,5.2396,5.2475,5.2525,5.2613,5.2646,5.2707,5.2689,5.2714,5.272,5.2726,5.2731,5.2571,5.2719,5.2719,5.2718,5.2718,5.2718,0,5.2046,5.208,5.2144,5.2216,5.227,5.2261,5.2317,5.2362,5.2432,5.248,5.2537,5.2621,5.2688,5.2726,5.2793,5.2835,5.2833,5.2852,5.2849,5.2856,5.2743,5.2721,5.2852,5.2852,5.2852,5.2852,5.2852,5.2852,5.2124,5.2214,5.2231,5.2342,5.2375,5.2453,5.2486,5.253,5.2569,5.2664,5.272,5.2745,5.2789,5.286,5.2921,5.2931,5.2955,5.2976,5.2983,5.2877,5.2863,5.285,5.283,5.2982,5.2982,5.3091,5.3092,5.3093]}]]